AKDT,Max TemperatureF,Mean TemperatureF,Min TemperatureF,Max Dew PointF,MeanDew PointF,Min DewpointF,Max Humidity, Mean Humidity, Min Humidity, Max Sea Level PressureIn, Mean Sea Level PressureIn, Min Sea Level PressureIn, Max VisibilityMiles, Mean VisibilityMiles, Min VisibilityMiles, Max Wind SpeedMPH, Mean Wind SpeedMPH, Max Gust SpeedMPH,PrecipitationIn, CloudCover, Events, WindDirDegrees
2013-4-1,39,34,30,31,23,19,92,64,48,30.10,30.01,29.96,10,10,10,7,2,,0.00,4,,295
2013-4-2,41,32,23,25,21,16,92,65,43,30.16,30.10,30.01,10,10,9,6,1,,0.00,2,,294
2013-4-3,45,36,28,27,23,20,82,60,38,30.24,30.21,30.17,10,10,10,7,1,,0.00,4,,314
2013-4-4,43,33,24,24,14,5,84,51,26,30.19,30.00,29.76,10,10,10,12,3,,0.00,0,,359
2013-4-5,37,25,14,24,11,5,84,53,31,29.74,29.58,29.48,10,10,8,6,2,,0.00,2,Snow,319
2013-4-6,28,22,17,26,18,8,96,80,45,29.52,29.47,29.45,10,3,0,8,5,,0.23,8,Fog-Snow,13
2013-4-7,27,24,21,27,12,5,100,61,48,29.78,29.66,29.51,10,10,4,13,7,22,0.00,6,Snow,218
2013-4-8,19,14,10,18,10,-1,93,75,52,29.78,29.54,29.28,10,3,0,9,5,,0.16,6,Fog-Snow,13
2013-4-9,25,20,15,13,8,-2,84,65,41,29.46,29.20,29.10,10,7,1,7,5,,0.05,7,Snow,347
2013-4-10,21,16,12,12,7,-5,88,65,39,29.96,29.78,29.50,10,6,2,10,4,,0.00,8,Snow,227
2013-4-11,27,16,5,12,4,-2,86,61,36,30.10,30.03,29.95,10,8,1,12,5,,0.00,3,Snow,22
2013-4-12,32,16,3,3,0,-5,73,42,27,30.12,30.08,30.04,10,10,10,9,5,,0.00,0,,360
2013-4-13,35,20,7,15,4,-1,70,48,27,30.41,30.27,30.12,10,10,10,10,4,,0.00,0,,8
2013-4-14,37,24,12,19,9,4,74,50,27,30.53,30.47,30.41,10,10,10,7,1,,0.00,1,,313
2013-4-15,41,31,23,18,11,8,63,44,29,30.43,30.35,30.29,10,10,10,9,4,,0.00,2,,8
2013-4-16,37,27,18,17,10,8,65,47,33,30.28,30.17,30.09,10,10,10,8,4,,0.00,0,,346
2013-4-17,36,26,15,19,11,4,72,51,39,30.15,30.13,30.10,10,10,10,8,3,,0.00,1,,300
2013-4-18,39,28,18,23,13,9,74,52,30,30.18,30.15,30.11,10,10,10,7,2,,0.00,0,,312
2013-4-19,45,32,19,23,14,11,75,49,27,30.32,30.25,30.15,10,10,10,8,2,,0.00,0,,337
2013-4-20,46,34,23,20,17,13,78,50,30,30.41,30.38,30.32,10,10,10,6,1,,0.00,0,,305
2013-4-21,44,34,26,29,21,15,78,58,32,30.41,30.37,30.34,10,10,10,9,2,,0.00,4,,302
2013-4-22,50,39,28,27,24,20,92,58,32,30.50,30.47,30.41,10,10,10,9,2,,0.00,2,,327
2013-4-23,42,37,33,40,32,20,100,83,48,30.49,30.43,30.34,10,7,1,7,3,,0.12,8,Rain-Snow,359
2013-4-24,41,38,36,37,35,29,100,91,70,30.33,30.11,29.83,10,8,3,8,3,,0.00,8,Rain,248
2013-4-25,44,39,34,32,14,4,82,39,23,29.84,29.75,29.69,10,10,10,20,12,32,0.00,1,,7
2013-4-26,39,34,28,21,10,3,61,38,28,29.73,29.61,29.49,10,10,10,16,10,25,0.00,2,,326
2013-4-27,45,36,27,17,12,7,63,39,22,29.89,29.70,29.51,10,10,10,16,6,24,0.00,0,,5
2013-4-28,44,36,28,18,8,3,52,31,23,30.15,30.03,29.90,10,10,10,12,9,16,0.00,0,,353
2013-4-29,44,34,25,19,15,11,75,45,27,30.19,30.15,30.09,10,10,10,8,2,,0.00,2,,300
2013-4-30,42,38,33,35,28,20,97,71,45,30.09,29.95,29.82,10,9,1,9,3,,0.02,7,Snow,351